This is the latest recevied weather packets stored in our database for station/object G0AMO. If no packets are shown the sender has not sent any weather packets the latest 10 day(s).
| Time | Temp. | Humidity | Pressure | Rain* | Wind** | Luminosity | Snow |
|---|---|---|---|---|---|---|---|
| 1777787404 | 10° C | 99% | 1010.2 hPa | 0 mm | - | 0 W/m² | - |
| 1777786805 | 10° C | 99% | 1009.8 hPa | 0 mm | - | 0 W/m² | - |
| 1777786204 | 10° C | 99% | 1010.5 hPa | 0 mm | - | 0 W/m² | - |
| 1777782604 | 10° C | 99% | 1009.5 hPa | 0 mm | - | 0 W/m² | - |
| 1777782004 | 10° C | 99% | 1010.5 hPa | 0 mm | - | 0 W/m² | - |
| 1777780504 | 9.44° C | 98% | 1010.8 hPa | 0 mm | - | 0 W/m² | - |
| 1777779306 | 9.44° C | 98% | 1009.8 hPa | 0 mm | - | 0 W/m² | - |
| 1777778703 | 10° C | 98% | 1010.5 hPa | 0 mm | - | 0 W/m² | - |
| 1777778404 | 10° C | 98% | 1010.5 hPa | 0 mm | - | 0 W/m² | - |
| 1777774804 | 10° C | 98% | 1010.7 hPa | 0 mm | - | 0 W/m² | - |
| 1777773905 | 10° C | 97% | 1010.8 hPa | 0 mm | - | 0 W/m² | - |
| 1777772704 | 10° C | 97% | 1010.2 hPa | 0 mm | - | 0 W/m² | - |
| 1777772404 | 10° C | 97% | 1010.5 hPa | 0 mm | - | 0 W/m² | - |
| 1777770605 | 10.56° C | 96% | 1011.2 hPa | 0 mm | - | 0 W/m² | - |
| 1777770005 | 10.56° C | 96% | 1011.2 hPa | 0 mm | - | 0 W/m² | - |
| 1777769404 | 10.56° C | 95% | 1010.5 hPa | 0 mm | - | 0 W/m² | - |
| 1777768804 | 11.11° C | 95% | 1011.2 hPa | 0 mm | - | 0 W/m² | - |
| 1777768505 | 11.11° C | 95% | 1010.8 hPa | 0 mm | - | 0 W/m² | - |
| 1777765805 | 11.67° C | 94% | 1011.9 hPa | 0 mm | - | 0 W/m² | - |
| 1777764904 | 11.67° C | 94% | 1011.2 hPa | 0 mm | - | 0 W/m² | - |
| 1777764605 | 11.67° C | 94% | 1011.5 hPa | 0 mm | - | 0 W/m² | - |
| 1777757706 | 12.22° C | 96% | 1011.9 hPa | 0 mm | - | 0 W/m² | - |
| 1777756505 | 12.78° C | 95% | 1011.9 hPa | 0 mm | - | 0 W/m² | - |
| 1777752304 | 13.33° C | 95% | 1011.9 hPa | 0 mm | - | 0 W/m² | - |
| 1777751105 | 13.33° C | 94% | 1012.5 hPa | 0 mm | - | 0 W/m² | - |
* Rain latest hour (hover to see other rain measurements)
** Current wind speed in m/s (hover to see current wind gust speed)